Location: Asheville, NC
(35.6000°N, 82.5500°W)
Time: 17:28:49

KAITUO 1B - Pass Details

Date: 16 March 2018
Orbit: 500 x 520 km, 97.5° (Epoch: 18 March)

Event Time Altitude Azimuth Distance (km) Brightness Sun altitude
Rises 06:52:08 0° 32° (NNE) 2,642 ? -10.5°
Reaches altitude 10° 06:54:52 10° 53° (NE) 1,752 ? -9.9°
Maximum altitude 06:57:19 17° 94° (E) 1,386 ? -9.4°
Drops below altitude 10° 06:59:46 10° 135° (SE) 1,745 ? -8.9°
Sets 07:02:29 0° 157° (SSE) 2,627 ? -8.4°
